EW9081 Weather Reports


Display with metric or nautical units.
time (UTC)temp
F
wind
direction
speed
MPH
gust
MPH
rain 1hr
in
rain 24hr
in
rain mn
in
humidity
%
barometer
mb
20260506073501 51 236 0.0 2.0 0.00 0.00 0.00 89 1017.6
20260506073000 51 248 0.0 2.0 0.00 0.00 0.00 89 1017.6
20260506072501 51 225 1.0 4.0 0.00 0.00 0.00 89 1017.6
20260506072005 52 219 2.0 5.0 0.00 0.00 0.00 89 1017.6
20260506072001 52 232 2.0 4.0 0.00 0.00 0.00 89 1017.6
20260506071005 52 215 2.0 4.0 0.00 0.00 0.00 89 1017.5
20260506071001 52 215 2.0 5.0 0.00 0.00 0.00 89 1017.6
20260506062459 52 248 1.0 3.0 0.00 0.00 0.00 88 1017.4
20260506062000 52 228 1.0 3.0 0.00 0.00 0.00 88 1017.4
20260506061459 52 243 1.0 3.0 0.00 0.00 0.00 88 1017.3
20260506060959 52 235 1.0 3.0 0.00 0.00 0.00 87 1017.3
20260506060501 53 232 1.0 8.0 0.00 0.00 0.00 87 1017.3
20260506050954 54 259 2.0 6.0 0.00 0.00 0.00 85 1017.1
20260506050455 54 223 2.0 6.0 0.00 0.00 0.00 85 1017.1
20260506044955 54 234 1.0 5.0 0.00 0.00 0.00 85 1017.0
20260506044454 54 236 2.0 7.0 0.00 0.00 0.00 85 1017.0
20260506043953 54 249 2.0 8.0 0.00 0.00 0.00 85 1016.9
20260506043453 54 234 2.0 8.0 0.00 0.00 0.00 85 1016.9
20260506042954 54 270 2.0 8.0 0.00 0.00 0.00 85 1016.8
20260506042451 54 266 2.0 7.0 0.00 0.00 0.00 85 1016.7
20260506041951 54 242 2.0 7.0 0.00 0.00 0.00 85 1016.6
20260506041451 54 284 1.0 7.0 0.00 0.00 0.00 85 1016.6
20260506040952 54 242 2.0 7.0 0.00 0.00 0.00 84 1016.4
20260506040450 54 255 1.0 7.0 0.00 0.00 0.00 84 1016.3
20260506035950 54 247 1.0 4.0 0.00 0.00 0.00 84 1016.3
20260506035451 55 223 2.0 9.0 0.00 0.00 0.00 83 1016.1
20260506035447 54 254 2.0 7.0 0.00 0.00 0.00 83 1016.2
20260506034447 55 273 2.0 9.0 0.00 0.00 0.00 83 1016.0
20260506033948 55 254 2.0 5.0 0.00 0.00 0.00 82 1015.9
20260506033446 55 272 2.0 9.0 0.00 0.00 0.00 82 1015.8
20260506033102 56 234 2.0 7.0 0.00 0.00 0.00 80 1015.6
20260506032952 56 257 2.0 6.0 0.00 0.00 0.00 80 1015.7
20260506032946 56 260 2.0 9.0 0.00 0.00 0.00 81 1015.7
20260506031447 57 261 3.0 7.0 0.00 0.00 0.00 79 1015.6
20260506030947 57 209 3.0 7.0 0.00 0.00 0.00 78 1015.6
20260506030447 58 266 2.0 6.0 0.00 0.00 0.00 78 1015.5
20260506025946 58 252 1.0 6.0 0.00 0.00 0.00 77 1015.4
20260506025447 58 259 1.0 5.0 0.00 0.00 0.00 77 1015.3
20260506024947 59 258 2.0 6.0 0.00 0.00 0.00 76 1015.3
20260506024447 60 263 2.0 7.0 0.00 0.00 0.00 75 1015.3
20260506023947 60 238 2.0 7.0 0.00 0.00 0.00 74 1015.2
20260506023447 61 234 2.0 9.0 0.00 0.00 0.00 73 1015.2
20260506022946 61 242 2.0 9.0 0.00 0.00 0.00 73 1015.1
20260506022451 62 249 2.0 8.0 0.00 0.00 0.00 71 1015.0
20260506022447 62 281 2.0 6.0 0.00 0.00 0.00 72 1015.0
20260506021452 63 237 2.0 7.0 0.00 0.00 0.00 70 1015.0
20260506021447 62 229 2.0 8.0 0.00 0.00 0.00 71 1015.0
20260506020452 64 264 2.0 7.0 0.00 0.00 0.00 69 1015.0
20260506020446 63 261 2.0 7.0 0.00 0.00 0.00 69 1015.0
20260506020100 65 271 2.0 7.0 0.00 0.00 0.00 67 1015.0
20260506014948 65 226 2.0 7.0 0.00 0.00 0.00 67 1014.9
20260506014446 65 244 2.0 7.0 0.00 0.00 0.00 68 1014.9
20260506013952 66 253 2.0 6.0 0.00 0.00 0.00 65 1014.9
20260506013947 66 199 2.0 7.0 0.00 0.00 0.00 66 1014.8
20260506012944 67 274 2.0 6.0 0.00 0.00 0.00 65 1014.9
20260506012450 68 215 3.0 9.0 0.00 0.00 0.00 63 1014.8
20260506012446 67 260 3.0 9.0 0.00 0.00 0.00 66 1014.8
20260506011445 69 225 2.0 6.0 0.00 0.00 0.00 65 1014.8
20260506010944 69 289 2.0 6.0 0.00 0.00 0.00 65 1014.7
20260506010445 69 306 2.0 6.0 0.00 0.00 0.00 66 1014.8
20260506005945 69 278 1.0 6.0 0.00 0.00 0.00 64 1014.7
20260506005449 68 12 1.0 4.0 0.00 0.00 0.00 68 1014.7
20260506005444 69 273 1.0 3.0 0.00 0.00 0.00 64 1014.7
20260506005102 68 167 1.0 3.0 0.00 0.00 0.00 69 1014.7
20260506005058 68 167 1.0 4.0 0.00 0.00 0.00 68 1014.7
20260506003444 67 21 1.0 2.0 0.00 0.00 0.00 71 1014.7
20260506002943 66 5 0.0 3.0 0.00 0.00 0.00 71 1014.7
20260506002442 66 5 0.0 3.0 0.00 0.00 0.00 71 1014.7
20260506001942 66 15 0.0 2.0 0.00 0.00 0.00 68 1014.7
20260506001444 66 5 0.0 2.0 0.00 0.00 0.00 68 1014.7
20260506000947 67 67 2.0 8.0 0.00 0.00 0.00 73 1014.8
20260506000942 67 9 1.0 4.0 0.00 0.00 0.00 69 1014.7
20260506000556 66 5 1.0 8.0 0.00 0.00 0.00 71 1014.8
20260505235444 66 276 1.0 3.0 0.00 0.00 0.00 70 1014.8
20260505234940 66 163 1.0 5.0 0.00 0.00 0.00 69 1014.8
20260505234440 66 178 2.0 5.0 0.00 0.00 0.00 68 1014.8
20260505233939 67 84 1.0 4.0 0.00 0.00 0.00 66 1014.9
20260505233438 67 96 2.0 4.0 0.00 0.00 0.00 68 1014.9
20260505232942 68 180 2.0 5.0 0.00 0.00 0.00 67 1015.0
20260505232938 68 128 2.0 5.0 0.00 0.00 0.00 68 1015.0
20260505231937 69 169 2.0 5.0 0.00 0.00 0.00 66 1015.0
20260505231434 69 350 2.0 7.0 0.00 0.00 0.00 68 1015.1
20260505230939 69 64 2.0 4.0 0.00 0.00 0.00 68 1015.1
20260505230934 68 43 2.0 7.0 0.00 0.00 0.00 67 1015.1
20260505225934 68 17 1.0 4.0 0.00 0.00 0.00 66 1015.0
20260505225435 69 153 1.0 6.0 0.00 0.00 0.00 63 1015.1
20260505224932 68 128 1.0 6.0 0.00 0.00 0.00 68 1015.1
20260505224433 68 211 1.0 4.0 0.00 0.00 0.00 62 1015.2
20260505223932 68 169 1.0 4.0 0.00 0.00 0.00 63 1015.2
20260505223433 68 208 1.0 3.0 0.00 0.00 0.00 64 1015.3
20260505222933 67 221 1.0 5.0 0.00 0.00 0.00 63 1015.3
20260505222431 67 287 1.0 5.0 0.00 0.00 0.00 65 1015.4
20260505221932 66 217 2.0 5.0 0.00 0.00 0.00 65 1015.4
20260505221432 66 186 2.0 6.0 0.00 0.00 0.00 67 1015.4
20260505220932 66 225 2.0 6.0 0.00 0.00 0.00 67 1015.4
20260505220431 66 212 2.0 5.0 0.00 0.00 0.00 65 1015.5
20260505215930 66 245 2.0 4.0 0.00 0.00 0.00 66 1015.6
20260505215432 66 247 1.0 4.0 0.00 0.00 0.00 69 1015.6
20260505214931 65 315 1.0 3.0 0.00 0.00 0.00 68 1015.7
20260505214435 64 223 1.0 3.0 0.00 0.00 0.00 68 1015.7
20260505214430 64 161 1.0 3.0 0.00 0.00 0.00 68 1015.7
20260505213428 64 224 2.0 7.0 0.00 0.00 0.00 72 1015.8
20260505212932 64 337 2.0 5.0 0.00 0.00 0.00 69 1015.9
20260505212928 63 308 2.0 7.0 0.00 0.00 0.00 68 1015.9
20260505211929 64 16 2.0 4.0 0.00 0.00 0.00 72 1015.9
20260505211427 64 341 1.0 4.0 0.00 0.00 0.00 69 1016.0
20260505210929 64 41 1.0 4.0 0.00 0.00 0.00 72 1016.0
20260505210428 63 5 1.0 4.0 0.00 0.00 0.00 70 1016.0
20260505205927 63 5 2.0 5.0 0.00 0.00 0.00 68 1016.1
20260505205435 63 5 1.0 3.0 0.00 0.00 0.00 69 1016.2
20260505205428 63 327 2.0 5.0 0.00 0.00 0.00 68 1016.1
20260505204928 63 5 1.0 4.0 0.00 0.00 0.00 72 1016.1
20260505203929 63 148 1.0 3.0 0.00 0.00 0.00 67 1016.2
20260505203427 63 5 1.0 4.0 0.00 0.00 0.00 74 1016.2
20260505202931 62 278 1.0 4.0 0.00 0.00 0.00 73 1016.3
20260505202927 62 257 1.0 4.0 0.00 0.00 0.00 74 1016.2
20260505201926 62 22 2.0 7.0 0.00 0.00 0.00 70 1016.3
20260505201430 61 269 1.0 4.0 0.00 0.00 0.00 75 1016.6
20260505201426 62 343 2.0 7.0 0.00 0.00 0.00 72 1016.4
20260505200426 61 275 2.0 4.0 0.00 0.00 0.00 74 1016.6
20260505195926 61 298 2.0 5.0 0.00 0.00 0.00 73 1016.6
20260505195426 61 310 1.0 5.0 0.00 0.00 0.00 72 1016.6
20260505194926 60 281 1.0 3.0 0.00 0.00 0.00 72 1016.6
20260505194426 60 276 1.0 4.0 0.00 0.00 0.00 73 1016.7
20260505193921 60 299 2.0 5.0 0.00 0.00 0.00 74 1016.7
20260505193422 60 305 2.0 5.0 0.00 0.00 0.00 72 1016.7
20260505192922 60 253 1.0 3.0 0.00 0.00 0.00 72 1016.6
20260505192419 60 333 1.0 3.0 0.00 0.00 0.00 74 1016.7
20260505191921 59 281 1.0 4.0 0.00 0.00 0.00 74 1016.7
20260505191421 60 298 1.0 4.0 0.00 0.00 0.00 72 1016.8
20260505190920 60 248 1.0 3.0 0.00 0.00 0.00 72 1016.8
20260505190421 60 272 0.0 3.0 0.00 0.00 0.00 74 1016.8
20260505185919 59 298 0.0 0.0 0.00 0.00 0.00 74 1016.7
20260505185418 59 298 0.0 1.0 0.00 0.00 0.00 75 1016.7
20260505184917 59 297 1.0 3.0 0.00 0.00 0.00 73 1016.7
20260505184417 59 297 2.0 4.0 0.00 0.00 0.00 76 1016.7
20260505183923 59 9 1.0 2.0 0.00 0.00 0.00 77 1016.6
20260505183918 59 309 2.0 4.0 0.00 0.00 0.00 74 1016.7
20260505182919 59 277 1.0 6.0 0.00 0.00 0.00 78 1016.6
20260505182419 58 298 1.0 6.0 0.00 0.00 0.00 74 1016.6
20260505181916 58 196 0.0 4.0 0.00 0.00 0.00 77 1016.4
20260505181415 58 275 1.0 2.0 0.00 0.00 0.00 75 1016.4
20260505180915 58 280 0.0 2.0 0.00 0.00 0.00 75 1016.4
20260505180414 58 285 1.0 3.0 0.00 0.00 0.00 76 1016.4
20260505175919 58 270 1.0 4.0 0.00 0.00 0.00 78 1016.4
20260505175915 58 288 1.0 3.0 0.00 0.00 0.00 76 1016.4
20260505174914 57 350 1.0 4.0 0.00 0.00 0.00 76 1016.4
20260505174414 57 315 1.0 2.0 0.00 0.00 0.00 78 1016.3
20260505173914 57 296 1.0 3.0 0.00 0.00 0.00 77 1016.3
20260505173414 57 296 2.0 3.0 0.00 0.00 0.00 77 1016.4
20260505172914 57 294 1.0 3.0 0.00 0.00 0.00 80 1016.3
20260505172415 57 231 1.0 3.0 0.00 0.00 0.00 79 1016.3
20260505171915 57 306 1.0 3.0 0.00 0.00 0.00 78 1016.2
20260505171413 57 355 2.0 4.0 0.00 0.00 0.00 78 1016.3
20260505170913 57 0 1.0 4.0 0.00 0.00 0.00 80 1016.2
20260505170413 57 13 1.0 4.0 0.00 0.00 0.00 79 1016.3
20260505165914 57 355 1.0 3.0 0.00 0.00 0.00 78 1016.2
20260505165414 57 12 2.0 3.0 0.00 0.00 0.00 79 1016.1
20260505164915 57 0 2.0 4.0 0.00 0.00 0.00 79 1016.1
20260505164413 57 294 2.0 4.0 0.00 0.00 0.00 80 1016.1
20260505163914 56 350 2.0 4.0 0.00 0.00 0.00 81 1016.1
20260505163413 56 325 2.0 4.0 0.00 0.00 0.00 79 1016.1
20260505162913 56 302 1.0 4.0 0.00 0.00 0.00 79 1016.0
20260505162415 56 301 1.0 4.0 0.00 0.00 0.00 79 1016.1
20260505161913 56 332 1.0 3.0 0.00 0.00 0.00 80 1016.0
20260505161415 56 315 1.0 3.0 0.00 0.00 0.00 81 1016.0
20260505160913 56 292 1.0 3.0 0.00 0.00 0.00 81 1016.0
20260505160414 56 309 2.0 4.0 0.00 0.00 0.00 81 1016.0
20260505152913 55 236 0.0 2.0 0.00 0.00 0.00 83 1016.0
20260505152409 55 197 0.0 2.0 0.00 0.00 0.00 82 1016.0
20260505151911 55 197 0.0 2.0 0.00 0.00 0.00 82 1016.0
20260505151409 54 196 0.0 2.0 0.00 0.00 0.00 83 1016.0
20260505150909 54 196 0.0 2.0 0.00 0.00 0.00 82 1015.9
20260505150410 54 196 0.0 2.0 0.00 0.00 0.00 83 1015.9
20260505140359 53 196 1.0 3.0 0.00 0.00 0.00 85 1015.5
20260505124900 53 255 0.0 2.0 0.00 0.00 0.00 85 1015.0
20260505124856 53 255 0.0 0.0 0.00 0.00 0.00 85 1015.0
20260505124509 53 255 0.0 2.0 0.00 0.00 0.00 85 1014.9
20260505123355 53 255 0.0 2.0 0.00 0.00 0.00 85 1014.9
20260505122856 53 255 0.0 2.0 0.00 0.00 0.00 85 1014.9
20260505122354 53 255 0.0 2.0 0.00 0.00 0.00 85 1014.8
20260505121856 53 255 0.0 2.0 0.00 0.00 0.00 85 1014.7
20260505121354 53 255 0.0 2.0 0.00 0.00 0.00 85 1014.8
20260505120853 53 255 0.0 2.0 0.00 0.00 0.00 85 1014.8
20260505120353 53 255 1.0 2.0 0.00 0.00 0.00 85 1014.8
20260505115853 53 257 0.0 2.0 0.00 0.00 0.00 85 1014.8
20260505115358 53 258 0.0 1.0 0.00 0.00 0.00 85 1014.8
20260505115352 53 258 0.0 1.0 0.00 0.00 0.00 85 1014.8
20260505115004 53 258 0.0 1.0 0.00 0.00 0.00 85 1014.8
20260505113851 53 259 0.0 2.0 0.00 0.00 0.00 85 1014.8
20260505113352 53 259 0.0 2.0 0.00 0.00 0.00 85 1014.8
20260505112852 53 259 1.0 3.0 0.00 0.00 0.00 85 1014.8
20260505112351 53 259 1.0 3.0 0.00 0.00 0.00 84 1014.7
20260505111851 53 234 1.0 5.0 0.00 0.00 0.00 85 1014.7
20260505111353 53 233 2.0 6.0 0.00 0.00 0.00 84 1014.7
20260505110850 53 266 2.0 6.0 0.00 0.00 0.00 84 1014.6
20260505110350 53 266 2.0 8.0 0.00 0.00 0.00 85 1014.6
20260505101845 53 261 1.0 5.0 0.00 0.00 0.00 85 1014.3
20260505101345 53 250 1.0 5.0 0.00 0.00 0.00 85 1014.3
20260505100842 53 257 2.0 7.0 0.00 0.00 0.00 85 1014.3
20260505100344 53 291 1.0 7.0 0.00 0.00 0.00 85 1014.3
20260505095843 53 254 1.0 4.0 0.00 0.00 0.00 85 1014.3
20260505095342 53 252 1.0 6.0 0.00 0.00 0.00 85 1014.3
20260505094843 53 250 1.0 6.0 0.00 0.00 0.00 85 1014.2
20260505094348 53 223 2.0 9.0 0.00 0.00 0.00 85 1014.2
20260505094343 53 250 2.0 7.0 0.00 0.00 0.00 85 1014.2
20260505093843 53 211 2.0 7.0 0.00 0.00 0.00 84 1014.2
20260505093446 53 257 2.0 9.0 0.00 0.00 0.00 85 1014.2
20260505092340 53 252 3.0 8.0 0.00 0.00 0.00 85 1014.2
20260505091844 53 268 2.0 6.0 0.00 0.00 0.00 86 1014.1
20260505091840 53 259 3.0 8.0 0.00 0.00 0.00 85 1014.2
20260505090836 52 247 2.0 6.0 0.00 0.00 0.00 86 1014.1
20260505090340 52 219 2.0 7.0 0.00 0.00 0.00 86 1014.1
20260505090336 52 257 2.0 6.0 0.00 0.00 0.00 86 1014.1
20260505085337 52 252 2.0 7.0 0.00 0.00 0.00 86 1014.0
20260505084837 52 291 1.0 4.0 0.00 0.00 0.00 87 1014.0
20260505084337 52 248 1.0 4.0 0.00 0.00 0.00 86 1014.0
20260505083837 52 254 1.0 6.0 0.00 0.00 0.00 86 1014.0
20260505083337 52 265 2.0 6.0 0.00 0.00 0.00 86 1013.9
20260505082837 52 260 2.0 6.0 0.00 0.00 0.00 86 1013.8
20260505082339 52 296 2.0 6.0 0.00 0.00 0.00 86 1013.8
20260505082335 52 254 2.0 7.0 0.00 0.00 0.00 86 1013.8
20260505081334 52 259 3.0 7.0 0.00 0.00 0.00 86 1013.7
20260505080835 52 232 2.0 8.0 0.00 0.00 0.00 86 1013.7
20260505080335 52 287 3.0 9.0 0.00 0.00 0.00 86 1013.7
20260505075834 52 313 3.0 9.0 0.00 0.00 0.00 86 1013.7
20260505075334 52 250 2.0 7.0 0.00 0.00 0.00 86 1013.6
20260505074836 53 271 2.0 7.0 0.00 0.00 0.00 86 1013.6
20260505074335 53 273 2.0 6.0 0.00 0.00 0.00 86 1013.6
20260505073838 53 250 2.0 7.0 0.00 0.00 0.00 85 1013.6
20260505073834 53 278 2.0 6.0 0.00 0.00 0.00 85 1013.6